COSMOS 249 DEB, 19317

Orbit data source: Space-Track

COSMOS 249 DEB, 19317 is space debris in LEO originally from a launch on Sun, 20 Oct 1968 UTC launched from the Tyuratam Missile And Space Complex (TTMTR). Debris objects in space refer to the collection of defunct objects orbiting the Earth. Examples of debris include non-operational satellites, rocket bodies, and fragments generated from explosions, collisions, or faulty payload assembly.

Loading next visibility...
Identifier
19317, 1968-091DH
Orbit
LEO
Country
Flag of CISCIS
Related business
Manufacturer
Unknown
Mission
Spacecraft
Bus & Motor
Unknown
Mass
Unknown
Launch date (UTC)
1968-10-20 (58 years ago)
Launch vehicle
Unknown
Launch site
Tyuratam Missile And Space Complex (TTMTR)
Object type
Payload
Rocket body
Debris
Shape & HBR
Unknown shape, 0.1 m
Radar Cross Section
Medium (>0.1 m² and <1 m²)

Expand to show TLE details & history
Last TLE update: 1 day ago

TLE from 1 day ago
0 COSMOS 249 DEB
1 19317U 68091DH  26235.08932285  .00000096  00000-0  78342-4 0  9993
2 19317  62.8473 106.1541 0715216 225.1608 128.9139 13.42994396856357
Epoch: 2026-08-23T02:08Z
TLE epoch observation values (Epoch: 2026-08-23T02:08:37.494Z)
Latitude
0.00001°
Longitude
102.6075°
Altitude
1,457.4 km
Speed
6.962 km/s
True Right ascension
07h 04m 36s
True Declination
0° 00' 00"
Sunlit
Object was in daylight at epoch
Visualization orbit readout
Latitude
Unknown
Longitude
Unknown
Altitude
Unknown
Speed
Unknown
Apparent Right ascension
Unknown
Apparent Declination
Unknown
Sunlit
N/A
Visualization observer readout
Local Sidereal Time
21:36:10
Azimuth
Unknown
Elevation
Unknown
Doppler factor
Unknown
Orbital elements
Apogee altitude
1,631.673 km
Perigee altitude
562.4 km
Semi-major axis
7,475.174 km
Eccentricity
0.07152
Inclination
62.8473°
RAAN
106.1541°
Arg. of periapsis
225.1608°
True anomaly
134.94017°
Mean anomaly
128.9139°
Eccentric anomaly
131.96108°
Mean motion
3.35824 °/min
Orbital period
107.2 mins
BSTAR
0.000078342
Loading maneuver chart data...
Computing Atmospheric mass density...

Documentation

Showing up to 5 results
|